Location: Invercargill
(46.4000°S, 168.3500°E)
Time: 11:15:47
(UTC+12:00)

USA 234 - Pass Details

Date: 14 May 2021
Orbit: 1102 x 1105 km, 123.0° (Epoch: 18 April)

Event Time Altitude Azimuth Distance (km) Brightness Sun altitude
Exits shadow 18:02:40 - 123° (ESE) 3,264 5.1 -6.8°
Reaches altitude 10° 18:03:25 10° 121° (ESE) 2,991 4.9 -6.9°
Maximum altitude 18:09:51 52° 45° (NE) 1,357 3.6 -7.9°
Drops below altitude 10° 18:16:14 10° 330° (NNW) 2,969 6.3 -9.0°
Sets 18:18:47 0° 325° (NW) 3,921 7.1 -9.4°
